Terminal Aerodrome Forecast
Issued by NWS

Home | Current Version | Previous Version | Text Only | Print | Product List | Glossary On
Versions: 1 2 3 4 5 6 7 8 9 10 11 12 13 14 15 16 17 18 19 20 21 22 23 24 25 26 27 28 29 30
000
FTAK31 PAFA 240532
TAFATA
TAF
PATA 240532Z 2406/2506 20008KT P6SM SCT060 BKN080
     FM241800 12011G18KT P6SM BKN050 BKN100
     FM250000 20007KT P6SM OVC050=

USA.gov is the U.S. government's official web portal to all federal, state and local government web resources and services.